When you browse on this site, cookies collect data to enhance your experience and personalize the content and advertising you see.
Visit our Privacy Policy to learn more. By continuing to use the site, you agree to this use of cookies and data.
  • In Lithuania
  • List of Countries
  • For 7 days
  • Water Temperature
  • Weather Map
  • Weather Widgets
  • user-avatar
    Login

    Hourly Weather Hranice

    Today, 20 September, Friday

    Time Temperature Precipitation Wind Pressure Humidity
    00:00 +7°C° 0 mm 1 mps 747 mmHg 84%
    01:00 +7°C° 0 mm 1 mps 747 mmHg 85%
    02:00 +5°C° 0 mm 0 mps 747 mmHg 85%
    03:00 +5°C° 0 mm 0 mps 747 mmHg 86%
    04:00 +5°C° 0 mm 0 mps 747 mmHg 87%
    05:00 +5°C° 0 mm 0 mps 747 mmHg 84%
    06:00 +6°C° 0 mm 0 mps 747 mmHg 82%
    07:00 +7°C° 0 mm 0 mps 747 mmHg 79%
    08:00 +10°C° 0 mm 1 mps 747 mmHg 72%
    09:00 +12°C° 0 mm 1 mps 748 mmHg 65%
    10:00 +14°C° 0 mm 1 mps 748 mmHg 57%
    11:00 +14°C° 0 mm 1 mps 747 mmHg 54%
    12:00 +15°C° 0 mm 2 mps 747 mmHg 51%
    13:00 +15°C° 0 mm 2 mps 747 mmHg 48%
    14:00 +15°C° 0 mm 2 mps 746 mmHg 50%
    15:00 +15°C° 0 mm 2 mps 746 mmHg 51%
    16:00 +15°C° 0 mm 2 mps 746 mmHg 53%
    17:00 +13°C° 0 mm 1 mps 746 mmHg 60%
    18:00 +11°C° 0 mm 1 mps 746 mmHg 67%
    19:00 +9°C° 0 mm 1 mps 746 mmHg 75%
    20:00 +9°C° 0 mm 1 mps 746 mmHg 76%
    21:00 +9°C° 0 mm 1 mps 746 mmHg 77%
    22:00 +8°C° 0 mm 1 mps 747 mmHg 78%
    23:00 +8°C° 0 mm 1 mps 746 mmHg 79%

    Tomorrow, 21 September, Saturday

    Time Temperature Precipitation Wind Pressure Humidity
    00:00 +8°C° 0 mm 1 mps 746 mmHg 80%
    01:00 +7°C° 0 mm 0 mps 746 mmHg 81%
    02:00 +6°C° 0 mm 0 mps 746 mmHg 82%
    03:00 +6°C° 0 mm 0 mps 746 mmHg 83%
    04:00 +7°C° 0 mm 1 mps 746 mmHg 84%
    05:00 +8°C° 0 mm 1 mps 746 mmHg 80%
    06:00 +9°C° 0 mm 1 mps 746 mmHg 77%
    07:00 +9°C° 0 mm 1 mps 746 mmHg 74%
    08:00 +12°C° 0 mm 1 mps 746 mmHg 66%
    09:00 +14°C° 0 mm 1 mps 746 mmHg 59%
    10:00 +16°C° 0 mm 2 mps 746 mmHg 52%
    11:00 +17°C° 0 mm 2 mps 745 mmHg 49%
    12:00 +18°C° 0 mm 2 mps 745 mmHg 46%
    13:00 +19°C° 0 mm 2 mps 745 mmHg 44%
    14:00 +19°C° 0 mm 2 mps 744 mmHg 45%
    15:00 +18°C° 0 mm 2 mps 744 mmHg 46%
    16:00 +18°C° 0 mm 2 mps 743 mmHg 47%
    17:00 +16°C° 0 mm 2 mps 743 mmHg 52%
    18:00 +14°C° 0 mm 2 mps 743 mmHg 57%
    19:00 +12°C° 0 mm 1 mps 743 mmHg 62%
    20:00 +12°C° 0 mm 1 mps 743 mmHg 63%
    21:00 +11°C° 0 mm 1 mps 743 mmHg 63%
    22:00 +11°C° 0 mm 1 mps 743 mmHg 64%
    23:00 +10°C° 0 mm 1 mps 743 mmHg 64%

    Day after tomorrow, 22 September, Sunday

    Time Temperature Precipitation Wind Pressure Humidity
    00:00 +10°C° 0 mm 1 mps 743 mmHg 64%
    01:00 +10°C° 0 mm 1 mps 742 mmHg 65%
    02:00 +10°C° 0 mm 1 mps 742 mmHg 65%
    03:00 +9°C° 0 mm 1 mps 742 mmHg 65%
    04:00 +9°C° 0 mm 1 mps 742 mmHg 66%
    05:00 +10°C° 0 mm 1 mps 742 mmHg 65%
    06:00 +11°C° 0 mm 1 mps 742 mmHg 64%
    07:00 +12°C° 0 mm 1 mps 741 mmHg 63%
    08:00 +14°C° 0 mm 2 mps 741 mmHg 54%
    09:00 +16°C° 0 mm 3 mps 741 mmHg 46%
    10:00 +19°C° 0 mm 4 mps 741 mmHg 38%
    11:00 +19°C° 0 mm 4 mps 741 mmHg 37%
    12:00 +20°C° 0 mm 4 mps 740 mmHg 36%
    13:00 +21°C° 0 mm 4 mps 740 mmHg 34%
    14:00 +21°C° 0 mm 4 mps 739 mmHg 37%
    15:00 +21°C° 0 mm 3 mps 739 mmHg 40%
    16:00 +20°C° 0 mm 3 mps 738 mmHg 43%
    17:00 +18°C° 0 mm 3 mps 738 mmHg 47%
    18:00 +16°C° 0 mm 2 mps 738 mmHg 51%
    19:00 +14°C° 0 mm 2 mps 738 mmHg 55%
    20:00 +14°C° 0 mm 2 mps 737 mmHg 54%
    21:00 +14°C° 0 mm 2 mps 737 mmHg 53%
    22:00 +14°C° 0 mm 2 mps 737 mmHg 53%
    23:00 +14°C° 0 mm 2 mps 737 mmHg 50%

    23 September, Monday

    Time Temperature Precipitation Wind Pressure Humidity
    00:00 +15°C° 0 mm 2 mps 736 mmHg 48%
    01:00 +16°C° 0 mm 2 mps 736 mmHg 45%
    02:00 +16°C° 0 mm 2 mps 736 mmHg 45%
    03:00 +16°C° 0 mm 1 mps 736 mmHg 46%
    04:00 +15°C° 0 mm 1 mps 735 mmHg 46%
    05:00 +15°C° 0 mm 1 mps 735 mmHg 48%
    06:00 +16°C° 0 mm 1 mps 735 mmHg 51%
    07:00 +16°C° 0 mm 1 mps 735 mmHg 53%
    08:00 +18°C° 0 mm 1 mps 735 mmHg 52%
    09:00 +19°C° 0 mm 1 mps 735 mmHg 51%
    10:00 +20°C° 0 mm 1 mps 735 mmHg 50%
    11:00 +19°C° 0 mm 2 mps 735 mmHg 50%
    12:00 +20°C° 0 mm 2 mps 735 mmHg 51%
    13:00 +21°C° 0 mm 3 mps 735 mmHg 51%
    14:00 +20°C° 0 mm 3 mps 734 mmHg 53%
    15:00 +20°C° 0 mm 3 mps 734 mmHg 55%
    16:00 +20°C° 0 mm 3 mps 734 mmHg 57%
    17:00 +18°C° 0 mm 2 mps 734 mmHg 59%
    18:00 +17°C° 0 mm 2 mps 734 mmHg 62%
    19:00 +16°C° 0 mm 1 mps 734 mmHg 65%
    20:00 +16°C° 0 mm 1 mps 735 mmHg 68%
    21:00 +15°C° 0 mm 1 mps 735 mmHg 71%
    22:00 +15°C° 0 mm 2 mps 735 mmHg 74%
    23:00 +14°C° 0 mm 1 mps 735 mmHg 78%

    24 September, Tuesday

    Time Temperature Precipitation Wind Pressure Humidity
    00:00 +14°C° 0 mm 1 mps 735 mmHg 82%
    01:00 +13°C° 0 mm 1 mps 735 mmHg 85%
    02:00 +13°C° 0 mm 1 mps 735 mmHg 87%
    03:00 +13°C° 0 mm 1 mps 735 mmHg 89%
    04:00 +12°C° 0 mm 1 mps 735 mmHg 91%
    05:00 +13°C° 0 mm 1 mps 735 mmHg 90%
    06:00 +12°C° 0 mm 0 mps 736 mmHg 88%
    07:00 +13°C° 0 mm 0 mps 736 mmHg 86%
    08:00 +16°C° 0 mm 1 mps 736 mmHg 79%
    09:00 +18°C° 0 mm 1 mps 737 mmHg 72%
    10:00 +20°C° 0 mm 1 mps 737 mmHg 65%
    11:00 +19°C° 0 mm 2 mps 737 mmHg 64%
    12:00 +20°C° 0 mm 2 mps 737 mmHg 63%
    13:00 +20°C° 0 mm 2 mps 737 mmHg 62%
    14:00 +20°C° 0.1 mm 2 mps 736 mmHg 65%
    15:00 +20°C° 0.1 mm 2 mps 736 mmHg 68%
    16:00 +20°C° 0.1 mm 1 mps 736 mmHg 70%
    17:00 +19°C° 0.1 mm 1 mps 736 mmHg 77%
    18:00 +16°C° 0.1 mm 1 mps 736 mmHg 83%
    19:00 +15°C° 0.1 mm 1 mps 736 mmHg 90%
    20:00 +14°C° 0 mm 0 mps 736 mmHg 90%
    21:00 +13°C° 0 mm 0 mps 736 mmHg 91%
    22:00 +13°C° 0 mm 0 mps 736 mmHg 91%
    23:00 +13°C° 0 mm 0 mps 736 mmHg 92%

    25 September, Wednesday

    Time Temperature Precipitation Wind Pressure Humidity
    00:00 +12°C° 0 mm 0 mps 736 mmHg 93%
    01:00 +13°C° 0 mm 1 mps 736 mmHg 93%
    02:00 +13°C° 0 mm 1 mps 736 mmHg 94%
    03:00 +13°C° 0 mm 1 mps 735 mmHg 95%
    04:00 +13°C° 0 mm 1 mps 735 mmHg 95%
    05:00 +13°C° 0 mm 1 mps 735 mmHg 94%
    06:00 +13°C° 0 mm 2 mps 735 mmHg 93%
    07:00 +14°C° 0 mm 2 mps 735 mmHg 92%
    08:00 +15°C° 0 mm 2 mps 735 mmHg 86%
    09:00 +16°C° 0 mm 2 mps 735 mmHg 80%
    10:00 +18°C° 0 mm 3 mps 735 mmHg 75%
    11:00 +19°C° 0 mm 3 mps 735 mmHg 69%
    12:00 +20°C° 0 mm 4 mps 734 mmHg 64%
    13:00 +21°C° 0 mm 5 mps 734 mmHg 58%
    14:00 +20°C° 0 mm 4 mps 734 mmHg 64%
    15:00 +18°C° 0 mm 3 mps 734 mmHg 70%
    16:00 +17°C° 0 mm 2 mps 734 mmHg 75%
    17:00 +17°C° 0 mm 2 mps 734 mmHg 78%
    18:00 +16°C° 0 mm 2 mps 734 mmHg 80%
    19:00 +16°C° 0 mm 2 mps 734 mmHg 82%
    20:00 +16°C° 0.4 mm 2 mps 734 mmHg 86%
    21:00 +15°C° 0.4 mm 2 mps 735 mmHg 90%
    22:00 +15°C° 0.4 mm 2 mps 735 mmHg 95%
    23:00 +15°C° 0.1 mm 2 mps 735 mmHg 94%
    Show more